owner,sensor,date,latitude,longitude,vertical_datum,sea_water_practical_salinity,qcFlag 
DISL,ioos:station:DISL:CATA:1,2009-09-01T00:00:00Z,30.3085,-88.1395,2.327,18.42,1111122 
DISL,ioos:station:DISL:CATA:1,2009-09-01T00:30:00Z,30.3085,-88.1395,2.323,18.3,1111122 
DISL,ioos:station:DISL:CATA:1,2009-09-01T01:00:00Z,30.3085,-88.1395,2.328,18.25,1111122 
DISL,ioos:station:DISL:CATA:1,2009-09-01T01:30:00Z,30.3085,-88.1395,2.34,18.47,1111122 
DISL,ioos:station:DISL:CATA:1,2009-09-01T02:00:00Z,30.3085,-88.1395,2.349,19.07,1111122 
DISL,ioos:station:DISL:CATA:1,2009-09-01T02:30:00Z,30.3085,-88.1395,2.366,18.97,1111122 
DISL,ioos:station:DISL:CATA:1,2009-09-01T03:00:00Z,30.3085,-88.1395,2.381,18.89,1111122 
DISL,ioos:station:DISL:CATA:1,2009-09-01T03:30:00Z,30.3085,-88.1395,2.391,19.07,1111122 
DISL,ioos:station:DISL:CATA:1,2009-09-01T04:00:00Z,30.3085,-88.1395,2.41,19.12,1111122 
DISL,ioos:station:DISL:CATA:1,2009-09-01T04:30:00Z,30.3085,-88.1395,2.424,19.13,1111122 
DISL,ioos:station:DISL:CATA:1,2009-09-01T05:00:00Z,30.3085,-88.1395,2.443,19.14,1111122 
DISL,ioos:station:DISL:CATA:1,2009-09-01T05:30:00Z,30.3085,-88.1395,2.465,19.32,1111122 
DISL,ioos:station:DISL:CATA:1,2009-09-01T06:00:00Z,30.3085,-88.1395,2.485,19.35,1111122 
DISL,ioos:station:DISL:CATA:1,2009-09-01T06:30:00Z,30.3085,-88.1395,2.499,19.48,1111122 
DISL,ioos:station:DISL:CATA:1,2009-09-01T07:00:00Z,30.3085,-88.1395,2.51,19.55,1111122 
DISL,ioos:station:DISL:CATA:1,2009-09-01T07:30:00Z,30.3085,-88.1395,2.529,19.63,1111122 
DISL,ioos:station:DISL:CATA:1,2009-09-01T08:00:00Z,30.3085,-88.1395,2.545,19.06,1111122 
DISL,ioos:station:DISL:CATA:1,2009-09-01T08:30:00Z,30.3085,-88.1395,2.56,19.82,1111122 
DISL,ioos:station:DISL:CATA:1,2009-09-01T09:00:00Z,30.3085,-88.1395,2.584,19.9,1111122 
DISL,ioos:station:DISL:CATA:1,2009-09-01T09:30:00Z,30.3085,-88.1395,2.605,19.23,1111122 
DISL,ioos:station:DISL:CATA:1,2009-09-01T10:00:00Z,30.3085,-88.1395,2.627,19.65,1111122 
DISL,ioos:station:DISL:CATA:1,2009-09-01T10:30:00Z,30.3085,-88.1395,2.657,19.55,1111122 
DISL,ioos:station:DISL:CATA:1,2009-09-01T11:00:00Z,30.3085,-88.1395,2.678,19.85,1111122 
DISL,ioos:station:DISL:CATA:1,2009-09-01T11:30:00Z,30.3085,-88.1395,2.698,22.46,1111122 
DISL,ioos:station:DISL:CATA:1,2009-09-01T12:00:00Z,30.3085,-88.1395,2.721,24.04,1111122 
DISL,ioos:station:DISL:CATA:1,2009-09-01T12:30:00Z,30.3085,-88.1395,2.739,24.94,1111122 
DISL,ioos:station:DISL:CATA:1,2009-09-01T13:00:00Z,30.3085,-88.1395,2.755,24.94,1111122 
DISL,ioos:station:DISL:CATA:1,2009-09-01T13:30:00Z,30.3085,-88.1395,2.762,24.96,1111122 
DISL,ioos:station:DISL:CATA:1,2009-09-01T14:00:00Z,30.3085,-88.1395,2.766,25.77,1111122 
DISL,ioos:station:DISL:CATA:1,2009-09-01T14:30:00Z,30.3085,-88.1395,2.773,26.17,1111122 
DISL,ioos:station:DISL:CATA:1,2009-09-01T15:00:00Z,30.3085,-88.1395,2.773,28.05,1111122 
DISL,ioos:station:DISL:CATA:1,2009-09-01T15:30:00Z,30.3085,-88.1395,2.775,29.05,1111122 
DISL,ioos:station:DISL:CATA:1,2009-09-01T16:00:00Z,30.3085,-88.1395,2.776,29.84,1111122 
DISL,ioos:station:DISL:CATA:1,2009-09-01T16:30:00Z,30.3085,-88.1395,2.762,30.43,1111122 
DISL,ioos:station:DISL:CATA:1,2009-09-01T17:00:00Z,30.3085,-88.1395,2.744,30.25,1111122 
DISL,ioos:station:DISL:CATA:1,2009-09-01T17:30:00Z,30.3085,-88.1395,2.717,30.91,1111122 
DISL,ioos:station:DISL:CATA:1,2009-09-01T18:00:00Z,30.3085,-88.1395,2.691,29.44,1111122 
DISL,ioos:station:DISL:CATA:1,2009-09-01T18:30:00Z,30.3085,-88.1395,2.655,31.06,1111122 
DISL,ioos:station:DISL:CATA:1,2009-09-01T19:00:00Z,30.3085,-88.1395,2.618,27.2,1111122 
DISL,ioos:station:DISL:CATA:1,2009-09-01T19:30:00Z,30.3085,-88.1395,2.58,19.36,1111122 
DISL,ioos:station:DISL:CATA:1,2009-09-01T20:00:00Z,30.3085,-88.1395,2.536,19.04,1111122 
DISL,ioos:station:DISL:CATA:1,2009-09-01T20:30:00Z,30.3085,-88.1395,2.492,18.96,1111122 
DISL,ioos:station:DISL:CATA:1,2009-09-01T21:00:00Z,30.3085,-88.1395,2.468,18.87,1111122 
DISL,ioos:station:DISL:CATA:1,2009-09-01T21:30:00Z,30.3085,-88.1395,2.447,18.81,1111122 
DISL,ioos:station:DISL:CATA:1,2009-09-01T22:00:00Z,30.3085,-88.1395,2.426,18.78,1111122 
DISL,ioos:station:DISL:CATA:1,2009-09-01T22:30:00Z,30.3085,-88.1395,2.404,18.68,1111122 
DISL,ioos:station:DISL:CATA:1,2009-09-01T23:00:00Z,30.3085,-88.1395,2.394,18.42,1111122 
DISL,ioos:station:DISL:CATA:1,2009-09-01T23:30:00Z,30.3085,-88.1395,2.387,18.5,1111122 
DISL,ioos:station:DISL:CATA:1,2009-09-02T00:00:00Z,30.3085,-88.1395,2.388,17.55,1111122 
DISL,ioos:station:DISL:CATA:1,2009-09-02T00:30:00Z,30.3085,-88.1395,2.391,16.65,1111122 
DISL,ioos:station:DISL:CATA:1,2009-09-02T01:00:00Z,30.3085,-88.1395,2.395,16.43,1111122 
DISL,ioos:station:DISL:CATA:1,2009-09-02T01:30:00Z,30.3085,-88.1395,2.399,17.5,1111122 
DISL,ioos:station:DISL:CATA:1,2009-09-02T02:00:00Z,30.3085,-88.1395,2.407,16.79,1111122 
DISL,ioos:station:DISL:CATA:1,2009-09-02T02:30:00Z,30.3085,-88.1395,2.421,16.52,1111122 
DISL,ioos:station:DISL:CATA:1,2009-09-02T03:00:00Z,30.3085,-88.1395,2.437,18.46,1111122 
DISL,ioos:station:DISL:CATA:1,2009-09-02T03:30:00Z,30.3085,-88.1395,2.45,18.48,1111122 
DISL,ioos:station:DISL:CATA:1,2009-09-02T04:00:00Z,30.3085,-88.1395,2.456,18.72,1111122 
DISL,ioos:station:DISL:CATA:1,2009-09-02T04:30:00Z,30.3085,-88.1395,2.454,18.07,1111122 
DISL,ioos:station:DISL:CATA:1,2009-09-02T05:00:00Z,30.3085,-88.1395,2.452,17.35,1111122 
DISL,ioos:station:DISL:CATA:1,2009-09-02T05:30:00Z,30.3085,-88.1395,2.453,18.49,1111122 
DISL,ioos:station:DISL:CATA:1,2009-09-02T06:00:00Z,30.3085,-88.1395,2.459,18.48,1111122 
DISL,ioos:station:DISL:CATA:1,2009-09-02T06:30:00Z,30.3085,-88.1395,2.47,18.56,1111122 
DISL,ioos:station:DISL:CATA:1,2009-09-02T07:00:00Z,30.3085,-88.1395,2.492,18.55,1111122 
DISL,ioos:station:DISL:CATA:1,2009-09-02T07:30:00Z,30.3085,-88.1395,2.498,17.99,1111122 
DISL,ioos:station:DISL:CATA:1,2009-09-02T08:00:00Z,30.3085,-88.1395,2.506,18.74,1111122 
DISL,ioos:station:DISL:CATA:1,2009-09-02T08:30:00Z,30.3085,-88.1395,2.535,21.3,1111122 
DISL,ioos:station:DISL:CATA:1,2009-09-02T09:00:00Z,30.3085,-88.1395,2.568,22.58,1111122 
DISL,ioos:station:DISL:CATA:1,2009-09-02T09:30:00Z,30.3085,-88.1395,2.585,24.89,1111122 
DISL,ioos:station:DISL:CATA:1,2009-09-02T10:00:00Z,30.3085,-88.1395,2.598,26.53,1111122 
DISL,ioos:station:DISL:CATA:1,2009-09-02T10:30:00Z,30.3085,-88.1395,2.618,27.44,1111122 
DISL,ioos:station:DISL:CATA:1,2009-09-02T11:00:00Z,30.3085,-88.1395,2.646,25.92,1111122 
DISL,ioos:station:DISL:CATA:1,2009-09-02T11:30:00Z,30.3085,-88.1395,2.676,26.27,1111122 
DISL,ioos:station:DISL:CATA:1,2009-09-02T12:00:00Z,30.3085,-88.1395,2.704,26.01,1111122 
DISL,ioos:station:DISL:CATA:1,2009-09-02T12:30:00Z,30.3085,-88.1395,2.727,24.38,1111122 
DISL,ioos:station:DISL:CATA:1,2009-09-02T13:00:00Z,30.3085,-88.1395,2.752,24.06,1111122 
DISL,ioos:station:DISL:CATA:1,2009-09-02T13:30:00Z,30.3085,-88.1395,2.769,23.67,1111122 
DISL,ioos:station:DISL:CATA:1,2009-09-02T14:00:00Z,30.3085,-88.1395,2.779,24.36,1111122 
DISL,ioos:station:DISL:CATA:1,2009-09-02T14:30:00Z,30.3085,-88.1395,2.795,24.18,1111122 
DISL,ioos:station:DISL:CATA:1,2009-09-02T15:00:00Z,30.3085,-88.1395,2.802,27.05,1111122 
DISL,ioos:station:DISL:CATA:1,2009-09-02T15:30:00Z,30.3085,-88.1395,2.813,28.58,1111122 
DISL,ioos:station:DISL:CATA:1,2009-09-02T16:00:00Z,30.3085,-88.1395,2.814,29.42,1111122 
DISL,ioos:station:DISL:CATA:1,2009-09-02T16:30:00Z,30.3085,-88.1395,2.808,29.01,1111122 
DISL,ioos:station:DISL:CATA:1,2009-09-02T17:00:00Z,30.3085,-88.1395,2.792,29.31,1111122 
DISL,ioos:station:DISL:CATA:1,2009-09-02T17:30:00Z,30.3085,-88.1395,2.767,29.07,1111122 
DISL,ioos:station:DISL:CATA:1,2009-09-02T18:00:00Z,30.3085,-88.1395,2.733,30.45,1111122 
DISL,ioos:station:DISL:CATA:1,2009-09-02T18:30:00Z,30.3085,-88.1395,2.709,30.03,1111122 
DISL,ioos:station:DISL:CATA:1,2009-09-02T19:00:00Z,30.3085,-88.1395,2.692,24.92,1111122 
DISL,ioos:station:DISL:CATA:1,2009-09-02T19:30:00Z,30.3085,-88.1395,2.655,20.44,1111122 
DISL,ioos:station:DISL:CATA:1,2009-09-02T20:00:00Z,30.3085,-88.1395,2.616,19.43,1111122 
DISL,ioos:station:DISL:CATA:1,2009-09-02T20:30:00Z,30.3085,-88.1395,2.578,18.91,1111122 
DISL,ioos:station:DISL:CATA:1,2009-09-02T21:00:00Z,30.3085,-88.1395,2.552,18.38,1111122 
DISL,ioos:station:DISL:CATA:1,2009-09-02T21:30:00Z,30.3085,-88.1395,2.516,18.56,1111122 
DISL,ioos:station:DISL:CATA:1,2009-09-02T22:00:00Z,30.3085,-88.1395,2.495,18.53,1111122 
DISL,ioos:station:DISL:CATA:1,2009-09-02T22:30:00Z,30.3085,-88.1395,2.497,17.83,1111122 
DISL,ioos:station:DISL:CATA:1,2009-09-02T23:00:00Z,30.3085,-88.1395,2.487,17.85,1111122 
DISL,ioos:station:DISL:CATA:1,2009-09-02T23:30:00Z,30.3085,-88.1395,2.468,18.56,1111122 
DISL,ioos:station:DISL:CATA:1,2009-09-03T00:00:00Z,30.3085,-88.1395,2.465,17.89,1111122 
DISL,ioos:station:DISL:CATA:1,2009-09-03T00:30:00Z,30.3085,-88.1395,2.473,18.41,1111122 
DISL,ioos:station:DISL:CATA:1,2009-09-03T01:00:00Z,30.3085,-88.1395,2.463,18.41,1111122 
DISL,ioos:station:DISL:CATA:1,2009-09-03T01:30:00Z,30.3085,-88.1395,2.451,18.14,1111122 
DISL,ioos:station:DISL:CATA:1,2009-09-03T02:00:00Z,30.3085,-88.1395,2.45,18.8,1111122 
DISL,ioos:station:DISL:CATA:1,2009-09-03T02:30:00Z,30.3085,-88.1395,2.44,18.79,1111122 
DISL,ioos:station:DISL:CATA:1,2009-09-03T03:00:00Z,30.3085,-88.1395,2.436,18.02,1111122 
DISL,ioos:station:DISL:CATA:1,2009-09-03T03:30:00Z,30.3085,-88.1395,2.445,17.97,1111122 
DISL,ioos:station:DISL:CATA:1,2009-09-03T04:00:00Z,30.3085,-88.1395,2.457,17.9,1111122 
DISL,ioos:station:DISL:CATA:1,2009-09-03T04:30:00Z,30.3085,-88.1395,2.46,17.88,1111122 
DISL,ioos:station:DISL:CATA:1,2009-09-03T05:00:00Z,30.3085,-88.1395,2.467,18.24,1111122 
DISL,ioos:station:DISL:CATA:1,2009-09-03T05:30:00Z,30.3085,-88.1395,2.478,17.92,1111122 
DISL,ioos:station:DISL:CATA:1,2009-09-03T06:00:00Z,30.3085,-88.1395,2.489,18.91,1111122 
DISL,ioos:station:DISL:CATA:1,2009-09-03T06:30:00Z,30.3085,-88.1395,2.506,18.63,1111122 
DISL,ioos:station:DISL:CATA:1,2009-09-03T07:00:00Z,30.3085,-88.1395,2.53,18.88,1111122 
DISL,ioos:station:DISL:CATA:1,2009-09-03T07:30:00Z,30.3085,-88.1395,2.552,18.97,1111122 
DISL,ioos:station:DISL:CATA:1,2009-09-03T08:00:00Z,30.3085,-88.1395,2.567,18.54,1111122 
DISL,ioos:station:DISL:CATA:1,2009-09-03T08:30:00Z,30.3085,-88.1395,2.572,18.87,1111122 
DISL,ioos:station:DISL:CATA:1,2009-09-03T09:00:00Z,30.3085,-88.1395,2.594,18.91,1111122 
DISL,ioos:station:DISL:CATA:1,2009-09-03T09:30:00Z,30.3085,-88.1395,2.614,18.96,1111122 
DISL,ioos:station:DISL:CATA:1,2009-09-03T10:00:00Z,30.3085,-88.1395,2.628,18.9,1111122 
DISL,ioos:station:DISL:CATA:1,2009-09-03T10:30:00Z,30.3085,-88.1395,2.66,18.8,1111122 
DISL,ioos:station:DISL:CATA:1,2009-09-03T11:00:00Z,30.3085,-88.1395,2.689,18.69,1111122 
DISL,ioos:station:DISL:CATA:1,2009-09-03T11:30:00Z,30.3085,-88.1395,2.697,18.82,1111122 
DISL,ioos:station:DISL:CATA:1,2009-09-03T12:00:00Z,30.3085,-88.1395,2.706,18.93,1111122 
DISL,ioos:station:DISL:CATA:1,2009-09-03T12:30:00Z,30.3085,-88.1395,2.73,18.94,1111122 
DISL,ioos:station:DISL:CATA:1,2009-09-03T13:00:00Z,30.3085,-88.1395,2.76,18.98,1111122 
DISL,ioos:station:DISL:CATA:1,2009-09-03T13:30:00Z,30.3085,-88.1395,2.772,18.66,1111122 
DISL,ioos:station:DISL:CATA:1,2009-09-03T14:00:00Z,30.3085,-88.1395,2.776,18.52,1111122 
DISL,ioos:station:DISL:CATA:1,2009-09-03T14:30:00Z,30.3085,-88.1395,2.809,18.26,1111122 
DISL,ioos:station:DISL:CATA:1,2009-09-03T15:00:00Z,30.3085,-88.1395,2.835,18.39,1111122 
DISL,ioos:station:DISL:CATA:1,2009-09-03T15:30:00Z,30.3085,-88.1395,2.849,18.63,1111122 
DISL,ioos:station:DISL:CATA:1,2009-09-03T16:00:00Z,30.3085,-88.1395,2.856,18.72,1111122 
DISL,ioos:station:DISL:CATA:1,2009-09-03T16:30:00Z,30.3085,-88.1395,2.863,18.44,1111122 
DISL,ioos:station:DISL:CATA:1,2009-09-03T17:00:00Z,30.3085,-88.1395,2.862,18.93,1111122 
DISL,ioos:station:DISL:CATA:1,2009-09-03T17:30:00Z,30.3085,-88.1395,2.841,18.96,1111122 
DISL,ioos:station:DISL:CATA:1,2009-09-03T18:00:00Z,30.3085,-88.1395,2.815,19.15,1111122 
DISL,ioos:station:DISL:CATA:1,2009-09-03T18:30:00Z,30.3085,-88.1395,2.796,19.65,1111122 
DISL,ioos:station:DISL:CATA:1,2009-09-03T19:00:00Z,30.3085,-88.1395,2.774,17.72,1111122 
DISL,ioos:station:DISL:CATA:1,2009-09-03T19:30:00Z,30.3085,-88.1395,2.747,17.34,1111122 
DISL,ioos:station:DISL:CATA:1,2009-09-03T20:00:00Z,30.3085,-88.1395,2.716,16.28,1111122 
DISL,ioos:station:DISL:CATA:1,2009-09-03T20:30:00Z,30.3085,-88.1395,2.697,17.43,1111122 
DISL,ioos:station:DISL:CATA:1,2009-09-03T21:00:00Z,30.3085,-88.1395,2.675,18.1,1111122 
DISL,ioos:station:DISL:CATA:1,2009-09-03T21:30:00Z,30.3085,-88.1395,2.649,17.69,1111122 
DISL,ioos:station:DISL:CATA:1,2009-09-03T22:00:00Z,30.3085,-88.1395,2.627,17.14,1111122 
DISL,ioos:station:DISL:CATA:1,2009-09-03T22:30:00Z,30.3085,-88.1395,2.609,17.02,1111122 
DISL,ioos:station:DISL:CATA:1,2009-09-03T23:00:00Z,30.3085,-88.1395,2.59,16.7,1111122 
DISL,ioos:station:DISL:CATA:1,2009-09-03T23:30:00Z,30.3085,-88.1395,2.585,16.86,1111122 
DISL,ioos:station:DISL:CATA:1,2009-09-04T00:00:00Z,30.3085,-88.1395,2.566,17.37,1111122 
DISL,ioos:station:DISL:CATA:1,2009-09-04T00:30:00Z,30.3085,-88.1395,2.549,17.47,1111122 
DISL,ioos:station:DISL:CATA:1,2009-09-04T01:00:00Z,30.3085,-88.1395,2.549,18.53,1111122 
DISL,ioos:station:DISL:CATA:1,2009-09-04T01:30:00Z,30.3085,-88.1395,2.558,18.93,1111122 
DISL,ioos:station:DISL:CATA:1,2009-09-04T02:00:00Z,30.3085,-88.1395,2.562,19.09,1111122 
DISL,ioos:station:DISL:CATA:1,2009-09-04T02:30:00Z,30.3085,-88.1395,2.562,19.33,1111122 
DISL,ioos:station:DISL:CATA:1,2009-09-04T03:00:00Z,30.3085,-88.1395,2.569,19.08,1111122 
DISL,ioos:station:DISL:CATA:1,2009-09-04T03:30:00Z,30.3085,-88.1395,2.574,19.19,1111122 
DISL,ioos:station:DISL:CATA:1,2009-09-04T04:00:00Z,30.3085,-88.1395,2.574,19.38,1111122 
DISL,ioos:station:DISL:CATA:1,2009-09-04T04:30:00Z,30.3085,-88.1395,2.584,19.1,1111122 
DISL,ioos:station:DISL:CATA:1,2009-09-04T05:00:00Z,30.3085,-88.1395,2.598,19.29,1111122 
DISL,ioos:station:DISL:CATA:1,2009-09-04T05:30:00Z,30.3085,-88.1395,2.602,19.59,1111122 
DISL,ioos:station:DISL:CATA:1,2009-09-04T06:00:00Z,30.3085,-88.1395,2.603,19.78,1111122 
DISL,ioos:station:DISL:CATA:1,2009-09-04T06:30:00Z,30.3085,-88.1395,2.605,19.88,1111122 
DISL,ioos:station:DISL:CATA:1,2009-09-04T07:00:00Z,30.3085,-88.1395,2.607,20.01,1111122 
DISL,ioos:station:DISL:CATA:1,2009-09-04T07:30:00Z,30.3085,-88.1395,2.608,20.44,1111122 
DISL,ioos:station:DISL:CATA:1,2009-09-04T08:00:00Z,30.3085,-88.1395,2.613,19.73,1111122 
DISL,ioos:station:DISL:CATA:1,2009-09-04T08:30:00Z,30.3085,-88.1395,2.615,19.24,1111122 
DISL,ioos:station:DISL:CATA:1,2009-09-04T09:00:00Z,30.3085,-88.1395,2.613,18.54,1111122 
DISL,ioos:station:DISL:CATA:1,2009-09-04T09:30:00Z,30.3085,-88.1395,2.618,18.54,1111122 
DISL,ioos:station:DISL:CATA:1,2009-09-04T10:00:00Z,30.3085,-88.1395,2.628,18.49,1111122 
DISL,ioos:station:DISL:CATA:1,2009-09-04T10:30:00Z,30.3085,-88.1395,2.635,17.62,1111122 
DISL,ioos:station:DISL:CATA:1,2009-09-04T11:00:00Z,30.3085,-88.1395,2.639,18.71,1111122 
DISL,ioos:station:DISL:CATA:1,2009-09-04T11:30:00Z,30.3085,-88.1395,2.656,18.82,1111122 
DISL,ioos:station:DISL:CATA:1,2009-09-04T12:00:00Z,30.3085,-88.1395,2.672,19.05,1111122 
DISL,ioos:station:DISL:CATA:1,2009-09-04T12:30:00Z,30.3085,-88.1395,2.691,19.37,1111122 
DISL,ioos:station:DISL:CATA:1,2009-09-04T13:00:00Z,30.3085,-88.1395,2.714,18.09,1111122 
DISL,ioos:station:DISL:CATA:1,2009-09-04T13:30:00Z,30.3085,-88.1395,2.733,20.02,1111122 
DISL,ioos:station:DISL:CATA:1,2009-09-04T14:00:00Z,30.3085,-88.1395,2.753,20.6,1111122 
DISL,ioos:station:DISL:CATA:1,2009-09-04T14:30:00Z,30.3085,-88.1395,2.77,19.9,1111122 
DISL,ioos:station:DISL:CATA:1,2009-09-04T15:00:00Z,30.3085,-88.1395,2.786,19.55,1111122 
DISL,ioos:station:DISL:CATA:1,2009-09-04T15:30:00Z,30.3085,-88.1395,2.8,19.64,1111122 
DISL,ioos:station:DISL:CATA:1,2009-09-04T16:00:00Z,30.3085,-88.1395,2.815,19.95,1111122 
DISL,ioos:station:DISL:CATA:1,2009-09-04T16:30:00Z,30.3085,-88.1395,2.831,20.72,1111122 
DISL,ioos:station:DISL:CATA:1,2009-09-04T17:00:00Z,30.3085,-88.1395,2.841,21.22,1111122 
DISL,ioos:station:DISL:CATA:1,2009-09-04T17:30:00Z,30.3085,-88.1395,2.828,21.97,1111122 
DISL,ioos:station:DISL:CATA:1,2009-09-04T18:00:00Z,30.3085,-88.1395,2.808,22.61,1111122 
DISL,ioos:station:DISL:CATA:1,2009-09-04T18:30:00Z,30.3085,-88.1395,2.796,22.03,1111122 
DISL,ioos:station:DISL:CATA:1,2009-09-04T19:00:00Z,30.3085,-88.1395,2.799,19.53,1111122 
DISL,ioos:station:DISL:CATA:1,2009-09-04T19:30:00Z,30.3085,-88.1395,2.797,18.32,1111122 
DISL,ioos:station:DISL:CATA:1,2009-09-04T20:00:00Z,30.3085,-88.1395,2.779,18.22,1111122 
DISL,ioos:station:DISL:CATA:1,2009-09-04T20:30:00Z,30.3085,-88.1395,2.756,18.56,1111122 
DISL,ioos:station:DISL:CATA:1,2009-09-04T21:00:00Z,30.3085,-88.1395,2.736,18.77,1111122 
DISL,ioos:station:DISL:CATA:1,2009-09-04T21:30:00Z,30.3085,-88.1395,2.711,20.24,1111122 
DISL,ioos:station:DISL:CATA:1,2009-09-04T22:00:00Z,30.3085,-88.1395,2.686,20.95,1111122 
DISL,ioos:station:DISL:CATA:1,2009-09-04T22:30:00Z,30.3085,-88.1395,2.667,21.4,1111122 
DISL,ioos:station:DISL:CATA:1,2009-09-04T23:00:00Z,30.3085,-88.1395,2.654,21.52,1111122 
DISL,ioos:station:DISL:CATA:1,2009-09-04T23:30:00Z,30.3085,-88.1395,2.63,21.22,1111122 
DISL,ioos:station:DISL:CATA:1,2009-09-05T00:00:00Z,30.3085,-88.1395,2.618,20.41,1111122 
DISL,ioos:station:DISL:CATA:1,2009-09-05T00:30:00Z,30.3085,-88.1395,2.609,21.22,1111122 
DISL,ioos:station:DISL:CATA:1,2009-09-05T01:00:00Z,30.3085,-88.1395,2.613,20.99,1111122 
DISL,ioos:station:DISL:CATA:1,2009-09-05T01:30:00Z,30.3085,-88.1395,2.623,19.85,1111122 
DISL,ioos:station:DISL:CATA:1,2009-09-05T02:00:00Z,30.3085,-88.1395,2.635,19.03,1111122 
DISL,ioos:station:DISL:CATA:1,2009-09-05T02:30:00Z,30.3085,-88.1395,2.644,20.27,1111122 
DISL,ioos:station:DISL:CATA:1,2009-09-05T03:00:00Z,30.3085,-88.1395,2.648,19.39,1111122 
DISL,ioos:station:DISL:CATA:1,2009-09-05T03:30:00Z,30.3085,-88.1395,2.648,20.49,1111122 
DISL,ioos:station:DISL:CATA:1,2009-09-05T04:00:00Z,30.3085,-88.1395,2.648,20.53,1111122 
DISL,ioos:station:DISL:CATA:1,2009-09-05T04:30:00Z,30.3085,-88.1395,2.648,20.12,1111122 
DISL,ioos:station:DISL:CATA:1,2009-09-05T05:00:00Z,30.3085,-88.1395,2.646,20.43,1111122 
DISL,ioos:station:DISL:CATA:1,2009-09-05T05:30:00Z,30.3085,-88.1395,2.643,20.6,1111122 
DISL,ioos:station:DISL:CATA:1,2009-09-05T06:00:00Z,30.3085,-88.1395,2.639,20.54,1111122 
DISL,ioos:station:DISL:CATA:1,2009-09-05T06:30:00Z,30.3085,-88.1395,2.641,19.93,1111122 
DISL,ioos:station:DISL:CATA:1,2009-09-05T07:00:00Z,30.3085,-88.1395,2.649,20.49,1111122 
DISL,ioos:station:DISL:CATA:1,2009-09-05T07:30:00Z,30.3085,-88.1395,2.652,20.67,1111122 
DISL,ioos:station:DISL:CATA:1,2009-09-05T08:00:00Z,30.3085,-88.1395,2.65,21.16,1111122 
DISL,ioos:station:DISL:CATA:1,2009-09-05T08:30:00Z,30.3085,-88.1395,2.654,21.3,1111122 
DISL,ioos:station:DISL:CATA:1,2009-09-05T09:00:00Z,30.3085,-88.1395,2.653,24.06,1111122 
DISL,ioos:station:DISL:CATA:1,2009-09-05T09:30:00Z,30.3085,-88.1395,2.65,24.84,1111122 
DISL,ioos:station:DISL:CATA:1,2009-09-05T10:00:00Z,30.3085,-88.1395,2.655,24.43,1111122 
DISL,ioos:station:DISL:CATA:1,2009-09-05T10:30:00Z,30.3085,-88.1395,2.642,26.5,1111122 
DISL,ioos:station:DISL:CATA:1,2009-09-05T11:00:00Z,30.3085,-88.1395,2.639,26.01,1111122 
DISL,ioos:station:DISL:CATA:1,2009-09-05T11:30:00Z,30.3085,-88.1395,2.64,26.11,1111122 
DISL,ioos:station:DISL:CATA:1,2009-09-05T12:00:00Z,30.3085,-88.1395,2.647,24.87,1111122 
DISL,ioos:station:DISL:CATA:1,2009-09-05T12:30:00Z,30.3085,-88.1395,2.653,24.88,1111122 
DISL,ioos:station:DISL:CATA:1,2009-09-05T13:00:00Z,30.3085,-88.1395,2.655,23.83,1111122 
DISL,ioos:station:DISL:CATA:1,2009-09-05T13:30:00Z,30.3085,-88.1395,2.657,23.93,1111122 
DISL,ioos:station:DISL:CATA:1,2009-09-05T14:00:00Z,30.3085,-88.1395,2.666,22.27,1111122 
DISL,ioos:station:DISL:CATA:1,2009-09-05T14:30:00Z,30.3085,-88.1395,2.677,21.35,1111122 
DISL,ioos:station:DISL:CATA:1,2009-09-05T15:00:00Z,30.3085,-88.1395,2.694,21.29,1111122 
DISL,ioos:station:DISL:CATA:1,2009-09-05T15:30:00Z,30.3085,-88.1395,2.717,21.62,1111122 
DISL,ioos:station:DISL:CATA:1,2009-09-05T16:00:00Z,30.3085,-88.1395,2.744,20.19,1111122 
DISL,ioos:station:DISL:CATA:1,2009-09-05T16:30:00Z,30.3085,-88.1395,2.753,20.54,1111122 
DISL,ioos:station:DISL:CATA:1,2009-09-05T17:00:00Z,30.3085,-88.1395,2.753,21.59,1111122 
DISL,ioos:station:DISL:CATA:1,2009-09-05T17:30:00Z,30.3085,-88.1395,2.754,21.24,1111122 
DISL,ioos:station:DISL:CATA:1,2009-09-05T18:00:00Z,30.3085,-88.1395,2.759,21.92,1111122 
DISL,ioos:station:DISL:CATA:1,2009-09-05T18:30:00Z,30.3085,-88.1395,2.765,21.11,1111122 
DISL,ioos:station:DISL:CATA:1,2009-09-05T19:00:00Z,30.3085,-88.1395,2.762,22.07,1111122 
DISL,ioos:station:DISL:CATA:1,2009-09-05T19:30:00Z,30.3085,-88.1395,2.76,22.03,1111122 
DISL,ioos:station:DISL:CATA:1,2009-09-05T20:00:00Z,30.3085,-88.1395,2.746,21.53,1111122 
DISL,ioos:station:DISL:CATA:1,2009-09-05T20:30:00Z,30.3085,-88.1395,2.728,22.59,1111122 
DISL,ioos:station:DISL:CATA:1,2009-09-05T21:00:00Z,30.3085,-88.1395,2.705,22.87,1111122 
DISL,ioos:station:DISL:CATA:1,2009-09-05T21:30:00Z,30.3085,-88.1395,2.698,20.67,1111122 
DISL,ioos:station:DISL:CATA:1,2009-09-05T22:00:00Z,30.3085,-88.1395,2.688,18.52,1111122 
DISL,ioos:station:DISL:CATA:1,2009-09-05T22:30:00Z,30.3085,-88.1395,2.669,18.75,1111122 
DISL,ioos:station:DISL:CATA:1,2009-09-05T23:00:00Z,30.3085,-88.1395,2.652,18.82,1111122 
DISL,ioos:station:DISL:CATA:1,2009-09-05T23:30:00Z,30.3085,-88.1395,2.634,17.23,1111122 
DISL,ioos:station:DISL:CATA:1,2009-09-06T00:00:00Z,30.3085,-88.1395,2.629,17.87,1111122 
DISL,ioos:station:DISL:CATA:1,2009-09-06T00:30:00Z,30.3085,-88.1395,2.63,18.59,1111122 
DISL,ioos:station:DISL:CATA:1,2009-09-06T01:00:00Z,30.3085,-88.1395,2.639,17.84,1111122 
DISL,ioos:station:DISL:CATA:1,2009-09-06T01:30:00Z,30.3085,-88.1395,2.65,18.24,1111122 
DISL,ioos:station:DISL:CATA:1,2009-09-06T02:00:00Z,30.3085,-88.1395,2.661,20.12,1111122 
DISL,ioos:station:DISL:CATA:1,2009-09-06T02:30:00Z,30.3085,-88.1395,2.678,19.88,1111122 
DISL,ioos:station:DISL:CATA:1,2009-09-06T03:00:00Z,30.3085,-88.1395,2.694,21.18,1111122 
DISL,ioos:station:DISL:CATA:1,2009-09-06T03:30:00Z,30.3085,-88.1395,2.71,21.13,1111122 
DISL,ioos:station:DISL:CATA:1,2009-09-06T04:00:00Z,30.3085,-88.1395,2.718,23.46,1111122 
DISL,ioos:station:DISL:CATA:1,2009-09-06T04:30:00Z,30.3085,-88.1395,2.722,24.47,1111122 
DISL,ioos:station:DISL:CATA:1,2009-09-06T05:00:00Z,30.3085,-88.1395,2.719,24.93,1111122 
DISL,ioos:station:DISL:CATA:1,2009-09-06T05:30:00Z,30.3085,-88.1395,2.721,24.58,1111122 
DISL,ioos:station:DISL:CATA:1,2009-09-06T06:00:00Z,30.3085,-88.1395,2.723,25.56,1111122 
DISL,ioos:station:DISL:CATA:1,2009-09-06T06:30:00Z,30.3085,-88.1395,2.723,24.66,1111122 
DISL,ioos:station:DISL:CATA:1,2009-09-06T07:00:00Z,30.3085,-88.1395,2.722,24.42,1111122 
DISL,ioos:station:DISL:CATA:1,2009-09-06T07:30:00Z,30.3085,-88.1395,2.719,24.73,1111122 
DISL,ioos:station:DISL:CATA:1,2009-09-06T08:00:00Z,30.3085,-88.1395,2.712,26.02,1111122 
DISL,ioos:station:DISL:CATA:1,2009-09-06T08:30:00Z,30.3085,-88.1395,2.703,25.91,1111122 
DISL,ioos:station:DISL:CATA:1,2009-09-06T09:00:00Z,30.3085,-88.1395,2.688,26.39,1111122 
DISL,ioos:station:DISL:CATA:1,2009-09-06T09:30:00Z,30.3085,-88.1395,2.679,26.7,1111122 
DISL,ioos:station:DISL:CATA:1,2009-09-06T10:00:00Z,30.3085,-88.1395,2.656,26.29,1111122 
DISL,ioos:station:DISL:CATA:1,2009-09-06T10:30:00Z,30.3085,-88.1395,2.643,26.12,1111122 
DISL,ioos:station:DISL:CATA:1,2009-09-06T11:00:00Z,30.3085,-88.1395,2.623,22.39,1111122 
DISL,ioos:station:DISL:CATA:1,2009-09-06T11:30:00Z,30.3085,-88.1395,2.582,22.66,1111122 
DISL,ioos:station:DISL:CATA:1,2009-09-06T12:00:00Z,30.3085,-88.1395,2.566,22.25,1111122 
DISL,ioos:station:DISL:CATA:1,2009-09-06T12:30:00Z,30.3085,-88.1395,2.56,22.8,1111122 
DISL,ioos:station:DISL:CATA:1,2009-09-06T13:00:00Z,30.3085,-88.1395,2.576,21.48,1111122 
DISL,ioos:station:DISL:CATA:1,2009-09-06T13:30:00Z,30.3085,-88.1395,2.581,20.61,1111122 
DISL,ioos:station:DISL:CATA:1,2009-09-06T14:00:00Z,30.3085,-88.1395,2.594,22.0,1111122 